AirNav   Air Wisconsin Up To $57,000 Bonus
 
 668 users online  

KSAS Salton Sea Airport
Salton City, California, USA

GOING TO SALTON CITY?


FAA INFORMATION EFFECTIVE 23 FEBRUARY 2023

Location

FAA Identifier: SAS
Lat/Long: 33-14-28.3000N 115-57-09.3000W
33-14.471667N 115-57.155000W
33.2411944,-115.9525833
(estimated)
Elevation: -84 ft. / -26 m (estimated)
Variation: 13E (1985)
From city: 1 mile SW of SALTON CITY, CA
Time zone: UTC -7 (UTC -8 during Standard Time)
Zip code: 92275

Airport Operations

Airport use: Open to the public
Activation date: 01/1960
Control tower: no
ARTCC: LOS ANGELES CENTER
FSS: SAN DIEGO FLIGHT SERVICE STATION
NOTAMs facility: SAN (NOTAM-D service available)
Attendance: UNATNDD
Pattern altitude: 716 ft. MSL
Wind indicator: yes
Segmented circle: yes

Airport Communications

CTAF: 122.9
WX AWOS-3P at L08 (19 nm W): 126.575 (760-767-3308)

Nearby radio navigation aids

VOR radial/distance  VOR name  Freq  Var
TRMr143/25.4THERMAL VORTAC116.2013E
JLIr064/32.4JULIAN VORTAC114.0015E
IPLr309/37.0IMPERIAL VORTAC115.9014E

Airport Services

Parking: tiedowns
Airframe service: NONE
Powerplant service: NONE
Bottled oxygen: NONE
Bulk oxygen: NONE

Runway Information

Runway 7/25

Dimensions: 5000 x 75 ft. / 1524 x 23 m
Surface: gravel, in good condition
Weight bearing capacity: 
Single wheel: 28.0
Runway edge markings: RY 07 AND RY 25 WHITE THLD BARS ARE ONLY MARKINGS ON RY.
RUNWAY 7  RUNWAY 25
Latitude: 33-14.433833N33-14.508167N
Longitude: 115-57.644333W115-56.667000W
Traffic pattern: rightleft
Runway end identifier lights: nono

Airport Ownership and Management from official FAA records

Ownership: Privately-owned
Owner: BURRTEC WASTE INDUSTRIES
9890 CHERRY AVENUE
FONTANA, CA 92335
Phone (909) 429-4200
Manager: DEBBIE HANSEN
9890 CHERRY AVENUE
FONTANA, CA 92335
Phone (909) 429-4200

Airport Operational Statistics

Aircraft operations: avg 29/month *
86% transient general aviation
14% military
* for 12-month period ending 31 December 2019

Additional Remarks

LOOSE GRVL INVOF PARKING AREA.
OCCASIONAL ULTRALIGHT ACTIVITY ON WEEKENDS.
FOR CD CTC LOS ANGELES ARTCC AT 661-575-2079.

Instrument Procedures

There are no published instrument procedures at KSAS.

Some nearby airports with instrument procedures:

L08 - Borrego Valley Airport (19 nm W)
KCLR - Cliff Hatfield Memorial Airport (23 nm E)
KTRM - Jacqueline Cochran Regional Airport (25 nm NW)
KBWC - Brawley Municipal Airport (26 nm SE)
KNJK - El Centro NAF Airport (Vraciu Field) (29 nm SE)
 
Loc | Ops | Rwys | IFR | FBO | Links
Com | Nav | Svcs | Stats | Notes
Area around KSAS (Salton Sea Airport)
 
Road maps at: MapQuest Bing Google
 
Aerial photo
WARNING: Photo may not be current or correct
Aerial photo of KSAS (Salton Sea Airport)
Photo by Mark Holtzman
Photo taken 12-May-2017
looking west.

Do you have a better or more recent aerial photo of Salton Sea Airport that you would like to share? If so, please send us your photo.

 
Sectional chart

 
Airport distance calculator
Flying to Salton Sea Airport? Find the distance to fly.

From to KSAS

Sunrise and sunset
Times for 21-Mar-2023
 Local
(UTC-7)
 Zulu
(UTC)
Morning civil twilight06:2213:22
Sunrise06:4713:47
Sunset18:5501:55
Evening civil twilight19:2002:20

Current date and time
Zulu (UTC)  22-Mar-2023 04:47:20
Local (UTC-7)  21-Mar-2023 21:47:20
 
METAR
KL08 
19nm W 
220435Z AUTO 25017G29KT 10SM FEW025 SCT032 BKN060 12/05 A2979 RMK AO2
KTRM 
26nm NW 
220352Z AUTO 00000KT 10SM OVC065 14/06 A2970 RMK AO2 SLP058 T01440056 $
KNJK 
29nm SE 
220356Z 13005KT 10SM FEW075 FEW100 SCT250 13/04 A2975 RMK AO2 SLP090 T01330044 $
KIPL 
31nm SE 
220353Z AUTO 34003KT 10SM CLR 14/05 A2974 RMK AO2 SLP070 T01390050
TAF
KTRM 
26nm NW 
211734Z 2118/2218 17011KT 6SM -RA BR SCT030 OVC040 TEMPO 2118/2121 5SM RA BR BKN030 FM212300 26015G25KT P6SM -SHRA SCT030 OVC050 FM220200 31022G32KT P6SM -SHRA SCT025 BKN045 FM221100 32015G25KT P6SM VCSH SCT020 BKN040
KNJK 
29nm SE 
2123/2223 24020G28KT 9999 FEW065 SCT100 BKN250 530007 560705 QNH2975INS TEMPO 2123/2201 BKN070 FM221200 24009KT 9999 FEW065 WSCONDS 520009 QNH2988INS FM221700 26018G25KT 9999 SCT070 520009 QNH2999INS AUTOMATED SENSOR METWATCH 2206 TIL 2213 TX21/2222Z TN10/2214Z FS30130
KIPL 
31nm SE 
211952Z 2120/2218 12012KT P6SM VCSH SCT080 BKN150 FM212100 26015G25KT P6SM SCT080 FM220300 27025G35KT P6SM SCT080 FM221000 26015G25KT P6SM FEW080
NOTAMs
Click for the latest NOTAMs
NOTAMs are issued by the DoD/FAA and will open in a separate window not controlled by AirNav.

 

 
 

Would you like to see your business listed on this page?

 If your business provides an interesting product or service to pilots, flight crews, aircraft, or users of the Salton Sea Airport, you should consider listing it here.  To start the listing process, click on the button below
 
Add a business
 

Other Pages about Salton Sea Airport

Update a link
 
Copyright © AirNav, LLC. All rights reserved. Privacy Policy  Contact